Flag for Germany Weather past 2 weeks in Eisenach, Thuringia, Germany

Now
42 °F

Light rain. Overcast.


Feels Like: 37 °F
Forecast: 41 / 52 °F
Wind: 8 mph from West

Location: Meiningen

Current Time: Oct 22, 2014 at 9:30:03 AM

Latest Report: Oct 22, 2014 at 9:00 AM


Visibility: 14 mi

Pressure: 29.86 "Hg

Humidity: 80%

Dew point: 36 °F

Location of EisenachLocation

Historic Weather in Eisenach — Graph

°F

Eisenach temperature yesterday

Maximum temperature yesterday: 54 °F (at 3:00 PM)
Minimum temperature yesterday: 42 °F (at 4:00 AM)
Average temperature yesterday: 48 °F

Past Weeks' High & Low Weather Summary

 TemperatureHumidityPressure
High66 °F (Oct 9, 3:00 PM)100% (Oct 12, 6:00 AM)30.25 "Hg (Oct 12, 6:00 AM)
Low39 °F (Oct 22, 6:00 AM)52% (Oct 15, 3:00 PM)29.55 "Hg (Oct 21, 8:00 PM)
Average54 °F89%29.90 "Hg
* Reported Oct 7 8:00 AM — Oct 22 8:00 AM, Eisenach, Weather by CustomWeather, © 2014

Note: Actual official high and low records may vary slightly from our data, if they occured in-between our weather recording intervals... More about our weather records

Advertising

Eisenach weather history for previous 24 hours

 ConditionsComfort  
Time TempWeatherWind HumidityBarometerVisibility
8:00 AM
Oct 22
42 °FLight rain. Overcast.7 mph85%29.83 "Hg11 mi
7:00 AM40 °FLight rain. Overcast.5 mph88%29.81 "Hg7 mi
6:00 AM39 °FRain. Overcast.7 mph88%29.80 "Hg5 mi
4:00 AM42 °FPassing clouds.7 mph80%29.81 "Hg31 mi
3:00 AM42 °FPassing clouds.3 mph86%29.81 "Hg40 mi
2:00 AM43 °FLight rain. Passing clouds.6 mph81%29.80 "Hg7 mi
1:00 AM43 °FDrizzle. Low clouds.7 mph87%29.78 "Hg22 mi
12:00 AM44 °FLow clouds.8 mph80%29.72 "Hg31 mi
11:00 PM
Oct 21
45 °FPassing clouds.6 mph81%29.68 "Hg28 mi
10:00 PM46 °FLow clouds.9 mph83%29.62 "Hg34 mi
9:00 PM48 °FOvercast.6 mph85%29.57 "Hg43 mi
8:00 PM50 °FRain. Low clouds.13 mph87%29.55 "Hg1 mi
7:00 PM49 °FPassing clouds.3 mph95%29.56 "Hg4 mi
6:00 PM51 °FDrizzle. Low clouds.6 mph89%29.59 "Hg22 mi
4:00 PM53 °FLight rain. Overcast.7 mph70%29.67 "Hg28 mi
3:00 PM54 °FOvercast.8 mph66%29.71 "Hg19 mi
2:00 PM53 °FOvercast.7 mph75%29.72 "Hg19 mi
1:00 PM52 °FOvercast.6 mph78%29.79 "Hg17 mi
12:00 PM51 °FLow clouds.6 mph80%29.84 "Hg14 mi
10:00 AM46 °FFog.3 mph98%29.88 "Hg3 mi
9:00 AM46 °FFog.3 mph99%29.90 "Hg1 mi
Weather by CustomWeather, © 2014

See weather overviewHow to use our weather pages